weather.gov     
National Weather Service

Regional Weather Roundup
NWS Homepage
This page is being discontinued on March 12, 2014.
The same data is available at this site. Please update your bookmarks.
Thank you, and we apologize for the inconvenience.
Please send an email to SR-SRH.Webmaster@noaa.gov with any concerns.


Current Version
Previous Version:    01  02  03  04  05  06  07  08  09  10  11  12  13  14  15  16  17  18  19  20  21  22  23  24  25  26  27  28  29  30  
   31  32  33  34  35  36  37  38  39  40  41  42  43  44  45  46  47  48  49  50  51  52  53  
[Printable]
685
ASUS43 KMPX 260510
RWRMN
WEATHER ROUNDUP FOR MINNESOTA
NATIONAL WEATHER SERVICE TWIN CITIES/CHANHASSEN MN
1200 AM CDT SUN OCT 26 2014


NOTE: "FAIR" INDICATES FEW OR NO CLOUDS BELOW 12,000 FEET WITH NO
SIGNIFICANT WEATHER AND/OR OBSTRUCTIONS TO VISIBILITY. N/A MEANS
CURRENT SKY AND/OR WEATHER CONDITIONS ARE NOT AVAILABLE.

MNZ060>063-068>070-260600-
   Twin Cities Metro

CITY           SKY/WX    TMP DP  RH WIND       PRES   REMARKS
TWIN CITIES    CLEAR     47  27  45 W3        30.05S
ST PAUL        CLEAR     44  34  67 CALM      30.06R
CRYSTAL        CLEAR     42  29  59 W3        30.04S
BLAINE         CLEAR     43  28  56 CALM      30.05R
LAKEVILLE      CLEAR     36  28  75 CALM      30.05S
EDEN PRAIRIE   CLEAR     45  29  53 SW3       30.04S
SOUTH ST PAUL  CLEAR     47  28  47 CALM      30.05S
LAKE ELMO      FAIR      39  30  70 CALM      30.05S
$$
MNZ001>005-007-008-013>017-022>024-027-028-260600-
   Northwest Minnesota

CITY           SKY/WX    TMP DP  RH WIND       PRES   REMARKS
BEMIDJI        CLEAR     34  23  65 CALM      30.00S
HALLOCK        CLEAR     36  19  51 CALM      29.96F
ROSEAU         MOCLDY   N/A N/A N/A W3        29.96F
WARROAD        PTCLDY    39  27  60 W7        29.97S
THIEF RVR FALL CLEAR     37  25  60 CALM      29.99S
CROOKSTON      CLEAR     34  25  69 S5        30.00F WCI  30
FOSSTON        PTCLDY    32  23  69 S7        30.01S WCI  26
DETROIT LAKES  CLEAR     41  32  70 CALM      30.02F
MOORHEAD       CLEAR     39  28  65 SE5       30.02F
PARK RAPIDS    CLEAR     34  25  69 CALM      30.01F
MAHNOMEN       FAIR      33  24  70 S7        30.00F WCI  27
$$
MNZ006-009>011-018-025>026-260600-
   North Central Minnesota

CITY           SKY/WX    TMP DP  RH WIND       PRES   REMARKS
BAUDETTE       CLEAR     36  27  69 SW3       29.96S
FLAG ISLAND    CLEAR     43  30  61 NW5       29.94S
INTL FALLS     CLEAR     30  24  78 CALM      29.95S
WASKISH        CLEAR     36  32  87 CALM      29.97F
BIG FORK       CLEAR     34  25  69 CALM      29.97F
LONGVILLE      CLEAR     34  32  93 CALM      30.00S
GRAND RAPIDS   CLEAR     45  25  45 W5        29.99S
CRANE LAKE     CLEAR     30  27  86 CALM      29.96F
ORR            CLEAR     36  25  64 CALM      29.94S
COOK           CLEAR     30  27  86 CALM      29.96F
WALKER         FAIR      40  25  55 W3        30.00S
$$
MNZ012-019>021-037-260600-
   Northeast Minnesota

CITY           SKY/WX    TMP DP  RH WIND       PRES   REMARKS
DULUTH         CLEAR     38  26  62 W9        29.97S
ELY            CLEAR     39  27  60 CALM      29.94F
HIBBING        CLEAR     29  23  78 SW5       29.97S WCI  24
EVELETH        CLEAR     32  27  80 CALM      29.98S
DULUTH HARBOR  CLEAR     48  32  53 W10       29.99S
TWO HARBORS    CLEAR     45  16  31 W3        29.93F
SILVER BAY     CLEAR     46  27  46 W7        29.91F
GRAND MARAIS     N/A     49  31  49 SW13      29.87R
G MARAIS ARPRT CLEAR     41  27  56 NW15G26   29.86S
$$
MNZ029>031-032-039>041-046>048-054>057-064-260600-
   West Central Minnesota

CITY           SKY/WX    TMP DP  RH WIND       PRES   REMARKS
FERGUS FALLS   CLEAR     41  27  56 SE3       30.03F
WHEATON        PTCLDY    34  25  69 S5        30.05S WCI  30
MORRIS         PTCLDY    37  25  60 E5        30.02F
ALEXANDRIA     CLEAR     38  30  73 SW3       30.04F
ELBOW LAKE     FAIR      42  31  65 SE3       30.03F
WADENA         CLEAR     36  28  75 CALM      30.03S
GLENWOOD       CLEAR     39  28  65 CALM      30.04F
APPLETON       CLEAR     39  32  75 CALM      30.04S
BENSON         CLEAR     34  30  86 CALM      30.04F
ORTONVILLE     CLEAR     39  30  70 CALM      30.03F
MADISON        CLEAR     41  30  65 CALM      30.04F
WILLMAR        FAIR      37  28  70 CALM      30.06F
$$
MNZ033>034-036-042>043-049>051-058-059-260600-
   Central Minnesota

CITY           SKY/WX    TMP DP  RH WIND       PRES   REMARKS
ST CLOUD       CLEAR     39  27  62 CALM      30.04F
SAUK CENTRE    FAIR      34  27  75 CALM      30.05F
PAYNESVILLE    CLEAR     32  27  82 CALM      30.05F
AITKIN         CLEAR     39  28  65 SW5       30.00S
PINE RIVER     CLEAR     32  25  74 CALM      30.05S
BRAINERD       CLEAR     37  27  67 SW3       30.03F
STAPLES        CLEAR     36  27  69 CALM      30.03F
LONG PRAIRIE   FAIR      32  28  86 CALM      30.04F
LITTLE FALLS   CLEAR     32  30  93 CALM      30.04F FOG
LITCHFIELD     CLEAR     43  36  75 CALM      30.06S
BUFFALO        CLEAR     38  29  67 CALM      30.06S
MAPLE LAKE     CLEAR     37  32  81 CALM      30.05F
$$
MNZ037-044-045-052-053-260600-
   East Central Minnesota

CITY           SKY/WX    TMP DP  RH WIND       PRES   REMARKS
PRINCETON      CLEAR     36  28  75 CALM      30.04F
MORA           CLEAR     34  28  80 CALM      30.04F
CAMBRIDGE      CLEAR     39  28  65 CALM      30.02S
RUSH CITY      CLEAR     39  28  66 CALM      30.03S
MOOSE LAKE     CLEAR     34  27  75 W5        29.99F WCI  30
HINCKLEY       FAIR      39  30  70 CALM      30.02S
CLOQUET        CLEAR     43  25  49 W7        29.98F
MCGREGOR       CLEAR     41  27  56 SW3       30.01F
$$
MNZ071>073-080-081-089-090-097-098-260600-
   Southwest Minnesota

CITY           SKY/WX    TMP DP  RH WIND       PRES   REMARKS
MONTEVIDEO     CLEAR     41  30  65 CALM      30.05F
GRANITE FALLS  CLEAR     38  31  77 CALM      30.06F
CANBY          CLEAR     37  32  81 CALM      30.06R
MARSHALL       CLEAR     39  28  65 SW6       30.04S
REDWOOD FALLS  CLEAR     41  30  65 S3        30.05F
OLIVIA         CLEAR     39  32  75 CALM      30.04F
PIPESTONE      CLEAR     45  32  61 SE7       30.05R
WINDOM         CLEAR     37  30  75 CALM      30.05F
WORTHINGTON    CLEAR     39  30  70 S3        30.06F
JACKSON        CLEAR     41  32  70 CALM      30.06F
TRACY          CLEAR     44  32  63 S3        30.05F
SLAYTON        CLEAR     39  31  74 CALM      30.06F
$$
MNZ065>067-074>077-082>085-091>093-260600-
   South Central Minnesota

CITY           SKY/WX    TMP DP  RH WIND       PRES   REMARKS
MANKATO        CLEAR     45  25  45 CALM      30.06S
NEW ULM        CLEAR     41  30  65 CALM      30.05F
ST JAMES       CLEAR     37  28  70 CALM      30.07F
FAIRMONT       CLEAR     39  28  65 CALM      30.06F
GLENCOE        CLEAR     37  30  76 SW3       30.06S
FARIBAULT      CLEAR     34  30  86 CALM      30.06S
OWATONNA       CLEAR     34  30  86 CALM      30.06F
WASECA         CLEAR     34  27  75 CALM      30.08S
ALBERT LEA     CLEAR     43  30  61 N5        30.06F
$$
MNZ078>079-086>088-094>096-260600-
   Southeast Minnesota

CITY           SKY/WX    TMP DP  RH WIND       PRES   REMARKS
ROCHESTER      CLEAR     42  28  57 NW8       30.06S
RED WING       CLEAR     36  28  75 NW3       30.04S
STANTON        CLEAR     35  28  76 CALM      30.04S
DODGE CENTER   PTCLDY    43  28  56 NW6       30.05F
WINONA         CLEAR     45  32  61 NW5       30.04S
AUSTIN         CLEAR     45  30  57 CALM      30.06S
PRESTON        CLEAR     41  30  64 NW8       30.05S
$$
ABBREVIATIONS USED IN REMARKS
   TC - TEMPERATURES IN CELSIUS
  WCI - WIND CHILL INDEX
   HX - HEAT INDEX
  VSB - VISIBILITY
$$




U.S. Dept. of Commerce
NOAA National Weather Service
1325 East West Highway
Silver Spring, MD 20910
E-mail: w-nws.webmaster@noaa.gov
Page last modified: May 16, 2007
NATIONAL WEATHER SERVICE: for Safety, for Work, for Fun - FOR LIFE